Regional Weather Roundup
Issued by NWS State College, PA

Home | Current Version | Previous Version | Graphics & Text | Print | Product List | Glossary On
Versions: 1 2 3 4 5 6 7 8 9 10 11 12 13 14 15 16 17 18 19 20 21 22 23 24 25 26 27 28 29 30 31 32 33 34 35 36 37 38 39 40 41 42 43 44 45 46 47 48 49 50
000
ASUS41 KCTP 232310
RWRCTP

REGIONAL WEATHER ROUNDUP
NATIONAL WEATHER SERVICE STATE COLLEGE PA
600 PM EST MON JAN 23 2017

Note: "fair" indicates few or no clouds below 12,000 feet with no
significant weather and/or obstructions to visibility.

* = STATION THAT DOES NOT REPORT PRECIPITATION /E.G. RAIN...SNOW...ETC/
    THUNDER OR FOG.

PAZ002>004-007>009-013>016-020>023-029>032-240000-
WESTERN PENNSYLVANIA

CITY           SKY/WX    TMP DP  RH WIND       PRES   REMARKS
ERIE           LGT RAIN  41  37  86 NE16G23   29.66R
MEADVILLE      LGT RAIN  45  40  82 E9        29.61R
FRANKLIN*        N/A     39  34  81 E12       29.62S
NEW CASTLE     LGT RAIN  42  39  89 E8        29.61R
BEAVER COUNTY  RAIN      37  37 100 E6        29.55F
BUTLER*        CLOUDY    34  30  86 NE9       29.62R
PITTSBURGH INT LGT SNOW  34  34 100 NE7       29.59R FOG
PITTSBURGH     LGT SNOW  35  31  85 N7        29.57R FOG
INDIANA*       CLOUDY    34  34 100 E8        29.60S FOG
LATROBE        CLOUDY    34  34 100 NE10      29.57R FOG
WASHINGTON CO* CLOUDY    36  34  93 NE9       29.57R
$$

PAZ004>006-010>012-017>019-024>028-033>037-041-042-045-046-049>053-240000-
CENTRAL PENNSYLVANIA

CITY           SKY/WX    TMP DP  RH WIND       PRES   REMARKS
BRADFORD       RAIN      37  37 100 SE6       29.63R FOG
DUBOIS         LGT SNOW  33  31  92 NE9       29.59F FOG
CLEARFIELD     RAIN      33  33 100 N6        29.62S FOG
JOHNSTOWN      LGT SNOW  32  32 100 E10G20    29.52R VSB 1
ALTOONA        LGT SNOW  34  34 100 NE12      29.58S FOG
STATE COLLEGE  LGT SNOW  32  32 100 NE6       29.63S
WILLIAMSPORT   HVY RAIN  37  34  89 CALM      29.67R FOG
SELINSGROVE    LGT RAIN  34  32  92 N7        29.65R
FT INDIANTOWN  LGT RAIN  35  35 100 NE8       29.62R
CAPITAL CITY   LGT RAIN  37  32  82 NE14      29.61F
HARRISBURG     RAIN      36  34  92 NE13      29.60S FOG
YORK           CLOUDY    36  35  96 NE10G20   29.57F
$$

PAZ038>040-043-044-047-048-054-055-060>062-067>071-240000-
EASTERN PENNSYLVANIA

CITY           SKY/WX    TMP DP  RH WIND       PRES   REMARKS
SCRANTON       FRZ RAIN  34  31  88 NE13G20   29.64R FOG
MOUNT POCONO   FRZ RAIN  30  27  88 E20G35    29.59S
ALLENTOWN      HVY RAIN  36  31  82 NE22G31   29.60F
QUAKERTOWN*    CLOUDY    36  32  87 NE9G22    29.58F
READING        LGT RAIN  36  35  96 NE13G18   29.59S
LANCASTER      LGT RAIN  37  35  92 NE14      29.59R FOG
COATESVILLE    CLOUDY    36  34  93 NE9G24    29.55S
POTTSTOWN      LGT RAIN  35  35 100 E9G20     29.63R
BLUE BELL      CLOUDY    34  34 100 NE10G22   29.57R
DOYLESTOWN     RAIN      37  35  92 NE12G24   29.56F
WILLOW GROVE   NOT AVBL
NORTH PHILA    RAIN      38  32  79 NE16G35   29.57F
PHILADELPHIA   CLOUDY    38  35  89 NE14G22   29.59R
$$




USA.gov is the U.S. government's official web portal to all federal, state and local government web resources and services.